Location: Unspecified
(0.0000°N, 0.0000°E)
Time: 23:11:31
(UTC+00:00)

Vanguard 1 - Pass Details

Date: 18 February 2018
Orbit: 650 x 3833 km, 34.3° (Epoch: 25 May)

Event Time Altitude Azimuth Distance (km) Brightness Sun altitude
Exits shadow 01:43:01 19° 153° (SSE) 3,939 13.2 -65.0°
Drops below altitude 10° 01:47:15 10° 144° (SE) 5,128 13.9 -64.1°
Sets 01:52:55 0° 136° (SE) 6,693 14.7 -62.8°
